STARLINK-32746 (62745 NORAD) Tracking and Keplerian Element Data

This shows tracking and keplerian element data for the satellite.

Feedback or suggestion? Click here.




ElementValue
Catalog62745
NameSTARLINK-32746
Epoch Orbit221
Epoch Day35.25001157
Epoch Year2025
RAAN253.8511
Inclination42.9997
Eccentricity0.0001827
Argument of Perigee269.5674
Mean Anonmoly105.3767
Mean Motion15.64342644
Decay Rate-0.01477423
L11 62745U 25014L 25035.25001157 -.01477423 00000+0 -16768-1 0 9990
L22 62745 42.9997 253.8511 0001827 269.5674 105.3767 15.64342644 2211



Live tracking and technical data element details for STARLINK-32746 (NORAD 62745). STARLINK-32746 can be tracked NOW for your location showing map with azimuth and elevation plus other details from your city location.







IsCatalogInMostPopularTable: catalog: 62745, numindb: 186
Update: records affected: 1



GetName: 62745 STARLINK-32746

Hit Count: updated at: Sat, 06 Dec 2025 18:42:33 GMT